Résultats du Marathon de Toulouse Métropole

Liste de résultats 2018

Place Dossard Nom Catégorie Temps réel Photos Diplôme Détails
3201 9013 APTEL Olivia VF1 02:19:01
3202 6903 ROUSSELY Fred VH1 02:19:01
3203 9668 ALLAIN Sophie SF 02:19:01
3204 9606 GOURDOU-BOUE Beatrice VF1 02:19:03
3205 8681 PELOU Monique VF2 02:19:06
3206 7380 FRAU Jose manuel VH3 02:19:07
3207 9161 MARQUES-ANGIOLINI Aurélia SF 02:19:08
3208 9475 FILLALI Nadya VF1 02:19:09
3209 9402 PAQUIEN Maud SF 02:19:15
3210 9033 ROUMEC Helene SF 02:19:17
3211 7808 BASTIDE Julien VH2 02:19:17
3212 8934 GONTINEAC Lucinda VF1 02:19:18
3213 7723 RAUD Fabien SH 02:19:19
3214 6931 LAURENS Frederic SH 02:19:24
3215 8084 CHASSAGNE Patrick VH2 02:19:37
3216 8002 GUTIERREZ Laurent VH1 02:19:38
3217 9575 BLANCAN Marie-christine VF2 02:19:38
3218 7576 HINDENNACH François SH 02:19:40
3219 9328 KULWIKOWSKI-CA-BIRAC Aurélie SF 02:19:43
3220 9594 SAGET Cécile VF2 02:19:43
3221 8911 BAKLOUTI Lucie SF 02:19:43
3222 8804 DELATTRE Sabrina SF 02:19:44
3223 9094 DELIERRE Valérie VF1 02:19:53
3224 7900 ELDACHRI Noufel SH 02:19:57
3225 8998 CASTERAN Christelle VF1 02:19:58
3226 6871 VALDIGUIE Marc VH2 02:19:59
3227 6901 OUSTRY Jean claude VH4 02:20:01
3228 8824 WITTERKOER Elsa SF 02:20:03
3229 8063 LABORDE Franck VH1 02:20:03
3230 8612 LEBEAU Laura EF 02:20:08
3231 6492 LABORIE Christophe VH1 02:20:11
3232 8602 HOLLARD Emmanuelle SF 02:20:13
3233 7327 NOZAL Clément SH 02:20:14
3234 9652 THERON Stéphanie VF1 02:20:16
3235 8909 TIBERGE Marion SF 02:20:17
3236 8976 POUFFIER Jenny SF 02:20:28
3237 9703 CAZADE Aurore SF 02:20:29
3238 6566 BADIN Benjamin SH 02:20:29
3239 7062 CRESP Pascal VH2 02:20:29
3240 8977 VAIDIE Mireille VF2 02:20:39
3241 7112 TJEERDSMA Bouke SH 02:20:39
3242 8518 RIVIERE Marjolaine SF 02:20:39
3243 7174 SOEIRO Antoine VH2 02:20:42
3244 6965 PORTALIER Guillaume SH 02:20:49
3245 6531 CAYLA Laurent VH2 02:20:49
3246 9542 BIROBENT Cecile VF1 02:20:50
3247 8025 LAMORLETTE Daniel VH2 02:20:50
3248 9545 LAMORLETTE Elina SF 02:20:51
3249 7668 GIREAUD Pascal SH 02:20:53
3250 8634 ZACHAYUS Anna SF 02:20:57
3251 6260 BRETONNIER David SH 02:20:57
3252 8856 LEFORT-LAVAUZELLE Muriel VF1 02:20:59
3253 9698 DA COSTA Melinda SF 02:21:16
3254 9571 DAUGREILH Nathalie VF2 02:21:26
3255 9130 BARDET Aurélie SF 02:21:33
3256 7165 BARRIERE Florian SH 02:21:33
3257 6759 CADEAC Gilles VH3 02:21:33
3258 6650 JEANNEAU Luc VH2 02:21:40
3259 9051 TRINDADE Elodie SF 02:21:47
3260 9337 MESTE Stephanie VF1 02:21:50
3261 8525 MANUEL Sophie VF1 02:21:53
3262 8849 DAVIS Sally SF 02:21:56
3263 8985 PENERANDA Clément SF 02:21:57
3264 9359 MISPOULET Maud VF1 02:22:05
3265 8762 ARNAU Sergine VF1 02:22:16
3266 6453 ARNAU Stephane VH1 02:22:16
3267 8514 LECKLER Estelle SF 02:22:17
3268 6041 ALLAYS Severin SH 02:22:18
3269 8755 SINTES Claudine VF2 02:22:20
3270 7869 MISCEVIC Michel VH4 02:22:21
3271 8600 VILLEMUR Laura SF 02:22:23
3272 7612 VILLEBRUN Jean-marc VH3 02:22:30
3273 9368 VILLEBRUN Eva SF 02:22:30
3274 7187 VANDEWALLE Nicolas SH 02:22:32
3275 6620 SCIE Jérôme VH2 02:22:34
3276 9378 HILY Yolaine SF 02:22:34
3277 8843 COMPAIN Sarah SF 02:22:35
3278 9117 COMPAIN Aurelie SF 02:22:35
3279 7301 LOZIER Phil forme up VH1 02:22:36
3280 8590 OPOTCHINSKI Aurélie VF1 02:22:40
3281 8591 DUVAL Gaëlle VF1 02:22:40
3282 6672 ULVOAS Vincent SH 02:22:43
3283 8886 ULVOAS BROUE Marine SF 02:22:43
3284 8885 BROUE Margaux SF 02:22:44
3285 8788 GOMEZ Carina VF1 02:22:46
3286 6310 MISCEVIC Marc VH1 02:22:46
3287 9277 SEIBERRAS Angelique VF1 02:22:47
3288 6506 MARTINEZ Jean michel VH1 02:22:47
3289 9191 CHEVALLIER Oriane SF 02:22:47
3290 6282 HOSTEIN Grégory VH1 02:22:49
3291 9091 MANCEAU Aurélie SF 02:22:54
3292 9250 DHERMY Marianne SF 02:22:55
3293 9096 DALGUES Patricia VF1 02:22:55
3294 9442 BIRAGUE Sandra VF1 02:22:58
3295 6734 RENARD Jean philippe VH2 02:23:12
3296 9666 FRAYSSINET Martine VF1 02:23:14
3297 7932 DESCOTTE Eric VH2 02:23:20
3298 6872 FRUIT Eric VH2 02:23:24
3299 8768 MONTAIGNAC Cécile VF1 02:23:26
3300 6463 MONTAIGNAC Antony VH1 02:23:27

Résultats

Organisé par

Nous contacter

Newsletter

Suivez-nous sur

 Facebook  Twitter  Youtube  RSS

Météo